Home   Weather   Copenhagen   Past weeks
Flag for Denmark

Past Weather in Copenhagen, Denmark — Yesterday and Last 2 Weeks

Now
45 °F

Partly sunny.


Feels Like: 39 °F
Forecast: 50 / 41 °F
Wind: 10 mph from West

Location: Koebenhavn-Kastrup Airport

Current Time: Apr 4, 2020 at 11:34:28 am

Latest Report: Apr 4, 2020 at 10:50 am


Visibility: N/A

Pressure: 30.18 "Hg

Humidity: 61%

Dew Point: 32 °F

Location of CopenhagenLocation

Past Weather in Copenhagen — Graph

°F

Copenhagen Temperature Yesterday

Maximum temperature yesterday: 46 °F (at 1:20 pm)
Minimum temperature yesterday: 37 °F (at 5:50 am)
Average temperature yesterday: 42 °F

High & Low Weather Summary for the Past Weeks

 TemperatureHumidityPressure
High52 °F (Mar 27, 1:50 pm)93% (Mar 26, 3:20 am)30.77 "Hg (Mar 26, 3:20 am)
Low28 °F (Mar 31, 5:50 am)28% (Mar 29, 12:20 pm)29.42 "Hg (Apr 2, 7:02 pm)
Average40 °F63%30.31 "Hg
* Reported Mar 20 9:20 am — Apr 4 10:20 am, Copenhagen. Weather by CustomWeather, © 2020

Note: Actual official high and low records may vary slightly from our data, if they occured in-between our weather recording intervals... More about our weather records

Copenhagen Weather History for the Previous 24 Hours

Scroll right to see more
 ConditionsComfort  
Time TempWeatherWind HumidityBarometerVisibility
10:20 am
Sat, Apr 4
43 °FPassing clouds.10 mph71%30.18 "HgN/A
9:50 am41 °FScattered clouds.9 mph76%30.18 "HgN/A
9:20 am41 °FQuite cool.10 mph76%30.15 "HgN/A
8:50 am39 °FChilly.10 mph87%30.15 "HgN/A
8:20 am37 °FChilly.8 mph93%30.15 "HgN/A
7:50 am36 °FChilly.7 mph93%30.12 "HgN/A
7:20 am34 °FChilly.6 mph93%30.12 "HgN/A
6:50 am34 °FChilly.7 mph93%30.09 "HgN/A
6:20 am34 °FChilly.8 mph93%30.09 "HgN/A
5:50 am34 °FChilly.9 mph93%30.09 "HgN/A
5:20 am34 °FChilly.8 mph87%30.07 "HgN/A
4:50 am34 °FChilly.7 mph93%30.07 "HgN/A
4:20 am34 °FChilly.9 mph93%30.07 "HgN/A
3:50 am36 °FChilly.10 mph87%30.04 "HgN/A
3:20 am36 °FChilly.8 mph87%30.04 "HgN/A
2:50 am36 °FChilly.7 mph87%30.04 "HgN/A
2:20 am36 °FChilly.8 mph81%30.04 "HgN/A
1:50 am36 °FChilly.6 mph81%30.01 "HgN/A
1:20 am36 °FChilly.8 mph75%30.01 "HgN/A
12:50 am36 °FChilly.9 mph75%30.01 "HgN/A
12:20 am37 °FChilly.12 mph65%29.98 "HgN/A
11:50 pm
Fri, Apr 3
39 °FChilly.14 mph65%29.98 "HgN/A
11:20 pm39 °FChilly.14 mph65%29.95 "HgN/A
10:50 pm39 °FPassing clouds.13 mph65%29.95 "HgN/A
10:20 pm39 °FPassing clouds.10 mph70%29.95 "HgN/A
9:50 pm39 °FPassing clouds.9 mph70%29.95 "HgN/A
9:20 pm39 °FChilly.10 mph65%29.92 "HgN/A
8:50 pm41 °FQuite cool.15 mph61%29.92 "HgN/A
8:20 pm43 °FQuite cool.17 mph53%29.89 "HgN/A
7:50 pm43 °FScattered clouds.22 mph53%29.89 "HgN/A
7:20 pm43 °FQuite cool.18 mph53%29.86 "HgN/A
6:50 pm43 °FPassing clouds.23 mph49%29.86 "HgN/A
6:20 pm45 °FScattered clouds.24 mph46%29.83 "HgN/A
5:50 pm45 °FPassing clouds.24 mph46%29.83 "HgN/A
5:20 pm46 °FPartly sunny.26 mph40%29.80 "HgN/A
4:50 pm46 °FScattered clouds.25 mph43%29.80 "HgN/A
4:20 pm45 °FScattered clouds.26 mph46%29.77 "HgN/A
3:50 pm46 °FPartly sunny.26 mph46%29.77 "HgN/A
3:20 pm43 °FLight rain. Partly sunny.25 mph57%29.77 "HgN/A
2:50 pm45 °FPartly sunny.28 mph42%29.74 "HgN/A
2:20 pm46 °FPartly sunny.25 mph50%29.74 "HgN/A
1:50 pm46 °FPassing clouds.28 mph43%29.71 "HgN/A
1:20 pm46 °FPartly sunny.26 mph46%29.71 "HgN/A
12:50 pm45 °FPartly sunny.28 mph46%29.71 "HgN/A
12:20 pm45 °FPartly sunny.26 mph49%29.68 "HgN/A
11:50 am45 °FPartly sunny.24 mph49%29.68 "HgN/A
11:20 am43 °FScattered clouds.29 mph53%29.65 "HgN/A
Weather by CustomWeather, © 2020

See weather overview

Advertising